Weather History for KSFB - October, 2012

Change the Weather History Date:

Tuesday, October 16, 2012

  Actual Average Record
Temperature  
Mean Temperature 76 °F -  
Max Temperature 84 °F 83 °F 92 °F (1971)
Min Temperature 69 °F 63 °F 48 °F (1977)
Cooling Degree Days 10    
Growing Degree Days 26 (Base 50)    
Moisture  
Dew Point 64 °F    
Average Humidity 71    
Maximum Humidity 90    
Minimum Humidity 49    
Precipitation  
Precipitation 0.00 in - - ()
Sea Level Pressure  
Sea Level Pressure 29.85 in    
Wind  
Wind Speed 5 mph (North)    
Max Wind Speed 10 mph    
Max Gust Speed -    
Visibility 10 miles    
Events      
Averages and records for this station are not official NWS values.
T = Trace of Precipitation, MM = Missing Value Source: NWS Daily Summary

Daily Weather History Graph

Daily Weather History Graph

Search for Another Location

Airport or City:

Trip Planner

Search our weather history database for the weather conditions in past years. The results will help you decide how hot, cold, wet, or windy it might be!

Date:

Astronomy

Oct. 16, 2012 Rise Set
Actual Time 7:26 AM EDT 6:53 PM EDT
Civil Twilight 7:02 AM EDT 7:17 PM EDT
Nautical Twilight 6:35 AM EDT 7:44 PM EDT
Astronomical Twilight 6:08 AM EDT 8:12 PM EDT
Moon 8:38 AM EDT (10/16) 7:48 PM EDT (10/16)
Length of Visible Light 12h 14m
Length of Day
11h 26m
New Moon, 2% of the Moon is Illuminated
Oct 16
New Moon
Oct 21
First Quarter
Oct 29
Full
Nov 6
Last Quarter
Nov 13
New

Hourly Weather History & Observations

Time (EDT) Temp. Heat Index Dew Point Humidity Pressure Visibility Wind Dir Wind Speed Gust Speed Precip Events Conditions
12:53 AM 73.0 °F - 69.1 °F 87% 29.86 in 10.0 mi WSW 3.5 mph - N/A   Partly Cloudy
1:53 AM 71.1 °F - 68.0 °F 90% 29.86 in 10.0 mi Calm Calm - N/A   Clear
2:53 AM 71.1 °F - 68.0 °F 90% 29.86 in 10.0 mi NW 5.8 mph - N/A   Clear
3:53 AM 69.1 °F - 66.0 °F 90% 29.84 in 10.0 mi WNW 5.8 mph - N/A   Clear
4:53 AM 69.1 °F - 66.0 °F 90% 29.83 in 10.0 mi WNW 3.5 mph - N/A   Scattered Clouds
5:53 AM 70.0 °F - 66.9 °F 90% 29.84 in 10.0 mi NNW 6.9 mph - N/A   Clear
6:53 AM 71.1 °F - 66.0 °F 84% 29.85 in 10.0 mi North 8.1 mph - N/A   Clear
8:53 AM 72.0 °F - 64.0 °F 76% 29.88 in 10.0 mi North 8.1 mph - N/A   Clear
9:53 AM 75.0 °F - 64.0 °F 69% 29.89 in 10.0 mi North 10.4 mph - N/A   Clear
10:53 AM 79.0 °F - 63.0 °F 58% 29.88 in 10.0 mi NE 9.2 mph - N/A   Clear
11:53 AM 81.0 °F 81.9 °F 62.1 °F 52% 29.88 in 10.0 mi NNE 6.9 mph - N/A   Clear
12:53 PM 82.9 °F 84.0 °F 63.0 °F 51% 29.86 in 10.0 mi North 6.9 mph - N/A   Clear
1:53 PM 82.0 °F 83.0 °F 62.1 °F 51% 29.84 in 10.0 mi North 9.2 mph - N/A   Scattered Clouds
2:53 PM 82.0 °F 82.7 °F 61.0 °F 49% 29.83 in 10.0 mi NNE 6.9 mph - N/A   Mostly Cloudy
3:53 PM 82.0 °F 82.7 °F 61.0 °F 49% 29.82 in 10.0 mi Variable 3.5 mph - N/A   Partly Cloudy
4:53 PM 81.0 °F 81.7 °F 61.0 °F 50% 29.81 in 10.0 mi ENE 8.1 mph - N/A   Partly Cloudy
5:53 PM 78.1 °F - 62.1 °F 58% 29.83 in 10.0 mi NE 10.4 mph - N/A   Clear
6:53 PM 73.9 °F - 62.1 °F 66% 29.83 in 10.0 mi ENE 6.9 mph - N/A   Clear
7:53 PM 72.0 °F - 62.1 °F 71% 29.84 in 10.0 mi NNE 5.8 mph - N/A   Partly Cloudy
8:53 PM 71.1 °F - 62.1 °F 73% 29.86 in 10.0 mi NNE 4.6 mph - N/A   Clear
9:53 PM 70.0 °F - 62.1 °F 76% 29.86 in 10.0 mi NNE 4.6 mph - N/A   Clear
10:53 PM 69.1 °F - 61.0 °F 75% 29.86 in 10.0 mi NNE 3.5 mph - N/A   Clear
11:53 PM 69.1 °F - 62.1 °F 78% 29.86 in 10.0 mi North 4.6 mph - N/A   Clear